Location: Buckland
(65.9785°N, 161.1281°W)
Time: 18:03:39
(UTC+00:00)

Transit 4A - Visible Passes

Search period start: 04 December 2020 00:00
Search period end: 14 December 2020 00:00
Orbit: 862 x 982 km, 66.8° (Epoch: 03 December)

Date Brightness Start Highest point End Pass type
(mag) Time Alt. Az. Time Alt. Az. Time Alt. Az.
04 Dec 9.9 01:59:00 10° WNW 02:04:42 35° SW 02:10:17 10° S visible
04 Dec 11.2 03:46:50 10° WNW 03:49:23 13° W 03:51:54 10° SW visible
04 Dec 10.3 17:18:14 10° S 17:23:24 27° ESE 17:28:37 10° ENE visible
04 Dec 8.8 19:02:35 10° SW 19:08:52 59° SE 19:15:11 10° ENE visible
05 Dec 10.3 02:08:26 10° WNW 02:13:46 29° WSW 02:19:00 10° S visible
05 Dec 11.2 15:46:00 10° ESE 15:47:52 11° E 15:49:44 10° E visible
05 Dec 9.9 17:26:54 10° S 17:32:27 32° ESE 17:38:02 10° ENE visible
05 Dec 8.5 19:11:46 10° SW 19:18:08 68° SSE 19:24:31 10° ENE visible
06 Dec 10.6 02:17:54 10° WNW 02:22:47 23° WSW 02:27:34 10° SSW visible
06 Dec 10.9 15:53:21 10° SE 15:56:43 15° ESE 16:00:05 10° ENE visible
06 Dec 9.6 17:35:43 10° SSW 17:41:33 39° SE 17:47:25 10° ENE visible
07 Dec 10.8 02:27:30 10° WNW 02:31:44 19° WSW 02:35:55 10° SSW visible
07 Dec 10.6 16:01:23 10° SSE 16:05:37 19° ESE 16:09:52 10° ENE visible
07 Dec 9.2 17:44:39 10° SSW 17:50:42 46° SE 17:56:47 10° ENE visible
08 Dec 10.9 02:37:17 10° WNW 02:40:38 15° WSW 02:43:57 10° SW visible
08 Dec 10.3 16:09:43 10° SSE 16:14:35 23° ESE 16:19:28 10° ENE visible
08 Dec 8.9 17:53:41 10° SSW 17:59:54 54° SE 18:06:08 10° ENE visible
09 Dec 11.1 02:47:38 10° W 02:49:29 11° W 02:51:19 10° WSW visible
09 Dec 9.9 16:18:16 10° S 16:23:36 29° ESE 16:28:56 10° ENE visible
09 Dec 8.6 18:02:49 10° SW 18:09:08 62° SE 18:15:28 10° ENE visible
10 Dec 10.8 14:45:26 10° SE 14:47:59 13° E 14:50:31 10° ENE visible
10 Dec 9.6 16:27:00 10° S 16:32:40 34° SE 16:38:21 10° ENE visible
10 Dec 8.4 18:12:01 10° SW 18:18:26 71° SSE 18:24:48 10° ENE visible
11 Dec 10.6 14:53:08 10° SE 14:56:51 16° ESE 15:00:35 10° ENE visible
11 Dec 9.2 16:35:51 10° SSW 16:41:47 41° SE 16:47:44 10° ENE visible
11 Dec 8.2 18:21:18 10° WSW 18:27:44 78° SSE 18:34:09 10° ENE visible
12 Dec 10.2 15:01:17 10° SSE 15:05:47 20° ESE 15:10:17 10° ENE visible
12 Dec 8.9 16:44:49 10° SSW 16:50:57 49° SE 16:57:05 10° ENE visible
12 Dec 8.1 18:30:37 10° WSW 18:37:04 85° SSE 18:43:30 10° ENE visible
13 Dec 9.9 15:09:42 10° SSE 15:14:46 25° ESE 15:19:49 10° ENE visible
13 Dec 8.6 16:53:54 10° SW 17:00:10 57° SE 17:06:25 10° ENE visible
13 Dec 8.1 18:39:58 10° WSW 18:46:27 90° NNW 18:52:52 10° ENE visible
